ICEYE-X36

导读

ICEYE-X36(冰眼X36)是芬兰冰眼公司研制的X波段合成孔径雷达遥感卫星,于2024年3月4日在美国范登堡空军基地由猎鹰9号火箭发射升空,纳入太阳同步极地轨道。它属于冰眼卫星星座的组成部分,可不受昼夜、云层影响实现对地观测,服务于灾害监测、海事监管、资源勘探等多领域,为全球用户提供高频次、高可靠性的商业遥感数据服务。

Basic Information
目录编号:
59103
目录名称:
ICEYE-X36
国际标识:
2024-043F
轨道中心:
EARTH
卫星名称:
ICEYE-X36
卫星全名:
--
卫星状态:
在轨 (已飞行875 天)
发射日期:
2024-03-04 UTC
国别 :
美国 (US)
星等 :
--
Orbit Information
数据来源 国际轨道数据 AOE轨道数据
星历时间 2026-07-27T22:48:45+0800
8小时前
查看轨道信息
2026-07-25T06:00:00+0800
3天前
查看轨道信息
半长轴 6922.549km 6922.634km
偏心率 0.0006254 0.0006236
轨道倾角 97.841° 97.840°
近地点辐角 171.669° 178.256°
升交点赤经 347.428° 344.677°
平近点角 188.464° 297.244°
近地点 540.082km 540.18km
远地点 548.742km 548.814km
周期 95.534分钟 95.536分钟
每日圈数 15.073141 15.072862
Detailed Information
使用方式:
暂无
2D Orbit Map
3D Orbit Map
Orbit Altitude Analysis Chart
Orbit Inclination Analysis Chart
Orbit Comprehensive Analysis Chart
View Comprehensive Chart